Location: Unspecified
(0.0000°N, 0.0000°E)
Time: 06:51:52
(UTC+00:00)

Courier 1B - All Passes

Search period start: 26 June 2017 00:00
Search period end: 06 July 2017 00:00
Orbit: 962 x 1209 km, 28.3° (Epoch: 25 June)

Date Brightness Start Highest point End Pass type
(mag) Time Alt. Az. Time Alt. Az. Time Alt. Az.
26 Jun - 04:31:23 10° N 04:34:02 12° NNE 04:36:43 10° NE visible
26 Jun - 06:22:11 10° NW 06:28:43 42° NNE 06:35:41 10° E daylight
26 Jun - 08:15:52 10° WNW 08:23:02 59° SSW 08:30:37 10° SE daylight
26 Jun - 10:12:38 10° WSW 10:17:54 20° SSW 10:23:19 10° SSE daylight
26 Jun - 16:04:44 10° S 16:07:41 12° SSE 16:10:35 10° SE daylight
26 Jun - 17:56:13 10° SW 18:02:55 36° SSE 18:09:13 10° E daylight
26 Jun - 19:50:07 10° WSW 19:57:11 67° NNW 20:03:49 10° NE visible
26 Jun - 21:46:58 10° WNW 21:51:28 19° NNW 21:55:52 10° NNE visible
27 Jun - 05:28:57 10° NNW 05:34:50 30° NNE 05:41:01 10° E visible
27 Jun - 07:21:59 10° WNW 07:29:06 80° SSW 07:36:42 10° ESE daylight
27 Jun - 09:17:45 10° W 09:23:44 26° SSW 09:29:57 10° SSE daylight
27 Jun - 17:02:40 10° SSW 17:08:53 27° SSE 17:14:48 10° E daylight
27 Jun - 18:56:02 10° WSW 19:03:23 88° SE 19:10:13 10° ENE visible
27 Jun - 20:51:56 10° W 20:57:34 26° NNW 21:02:59 10° NNE visible
28 Jun - 04:35:57 10° NNW 04:40:55 22° NNE 04:46:05 10° ENE visible
28 Jun - 06:28:18 10° NW 06:35:13 75° NNE 06:42:39 10° ESE daylight
28 Jun - 08:23:12 10° W 08:29:39 34° SSW 08:36:25 10° SE daylight
28 Jun - 10:22:22 10° SW 10:25:01 12° SSW 10:27:43 10° S daylight
28 Jun - 16:09:15 10° SSW 16:14:46 21° SSE 16:20:05 10° ESE daylight
28 Jun - 18:02:06 10° SW 18:09:30 65° SSE 18:16:26 10° ENE daylight
28 Jun - 19:57:14 10° W 20:03:43 37° NNW 20:09:51 10° NE visible
28 Jun - 21:57:30 10° NNW 21:58:27 10° NNW 21:59:24 10° NNW visible
29 Jun - 03:43:16 10° N 03:46:57 15° NNE 03:50:42 10° ENE visible
29 Jun - 05:34:48 10° NW 05:41:23 54° NNE 05:48:25 10° ESE visible
29 Jun - 07:28:57 10° W 07:35:38 45° SSW 07:42:46 10° SE daylight
29 Jun - 09:26:34 10° SW 09:30:41 15° SSW 09:34:55 10° SSE daylight
29 Jun - 15:16:00 10° SSW 15:20:33 16° SSE 15:24:59 10° ESE daylight
29 Jun - 17:08:17 10° SW 17:15:35 48° SSE 17:22:26 10° ENE daylight
29 Jun - 19:02:45 10° WSW 19:09:52 52° NNW 19:16:32 10° NE visible
29 Jun - 21:00:39 10° WNW 21:04:22 15° NNW 21:07:59 10° N visible
30 Jun - 02:51:35 10° N 02:52:53 11° NNE 02:54:12 10° NE visible
30 Jun - 04:41:28 10° NW 04:47:34 38° NNE 04:54:00 10° E visible
30 Jun - 06:34:57 10° WNW 06:41:44 62° SSW 06:49:00 10° SE daylight
30 Jun - 08:31:25 10° WSW 08:36:28 20° SSW 08:41:44 10° SSE daylight
30 Jun - 14:23:07 10° S 14:26:12 13° SSE 14:29:16 10° SE daylight
30 Jun - 16:14:37 10° SW 16:21:34 36° SSE 16:28:12 10° E daylight
30 Jun - 18:08:29 10° WSW 18:16:00 72° NNW 18:23:02 10° NE daylight
30 Jun - 20:05:12 10° WNW 20:10:22 21° NNW 20:15:20 10° NNE visible
01 Jul - 03:48:19 10° NNW 03:53:44 27° NNE 03:59:21 10° E visible
01 Jul - 05:41:09 10° WNW 05:47:53 85° SSW 05:55:06 10° ESE daylight
01 Jul - 07:36:39 10° W 07:42:22 26° SSW 07:48:21 10° SSE daylight
01 Jul - 15:21:04 10° SSW 15:27:28 27° SSE 15:33:40 10° E daylight
01 Jul - 17:14:23 10° WSW 17:22:06 84° SSE 17:29:21 10° ENE daylight
01 Jul - 19:10:12 10° W 19:16:25 29° NNW 19:22:20 10° NNE visible
02 Jul - 02:55:23 10° NNW 02:59:51 19° NNE 03:04:25 10° ENE visible
02 Jul - 04:47:31 10° NW 04:54:06 70° NNE 05:01:04 10° ESE visible
02 Jul - 06:42:14 10° W 06:48:21 34° SSW 06:54:51 10° SE daylight
02 Jul - 08:41:12 10° SW 08:43:35 12° SSW 08:46:00 10° S daylight
02 Jul - 14:27:42 10° SSW 14:33:17 21° SSE 14:38:47 10° ESE daylight
02 Jul - 16:20:28 10° SW 16:28:09 62° SSE 16:35:27 10° ENE daylight
02 Jul - 18:15:29 10° W 18:22:30 41° NNW 18:29:06 10° NE visible
02 Jul - 20:14:39 10° NW 20:17:16 12° NNW 20:19:52 10° N visible
03 Jul - 02:02:49 10° N 02:05:53 14° NNE 02:08:59 10° NE visible
03 Jul - 03:54:05 10° NW 04:00:20 49° NNE 04:06:53 10° ESE visible
03 Jul - 05:48:04 10° W 05:54:26 46° SSW 06:01:14 10° SE daylight
03 Jul - 07:45:29 10° SW 07:49:19 15° SSW 07:53:17 10° SSE daylight
03 Jul - 13:34:33 10° SSW 13:39:01 16° SSE 13:43:28 10° ESE daylight
03 Jul - 15:26:41 10° SW 15:34:09 46° SSE 15:41:20 10° E daylight
03 Jul - 17:21:02 10° WSW 17:28:34 57° NNW 17:35:42 10° NE daylight
03 Jul - 19:18:36 10° WNW 19:23:10 17° NNW 19:27:34 10° NNE visible
04 Jul - 03:00:46 10° NW 03:06:34 34° NNE 03:12:31 10° E visible
04 Jul - 04:54:07 10° WNW 05:00:37 65° SSW 05:07:31 10° SE visible
04 Jul - 06:50:25 10° WSW 06:55:11 20° SSW 07:00:09 10° SSE daylight
04 Jul - 12:41:53 10° S 12:44:40 12° SSE 12:47:28 10° SE daylight
04 Jul - 14:33:03 10° SW 14:40:04 35° SSE 14:46:56 10° E daylight
04 Jul - 16:26:48 10° WSW 16:34:38 78° NNW 16:42:05 10° NE daylight
04 Jul - 18:23:16 10° WNW 18:29:07 24° NNW 18:34:42 10° NNE visible
05 Jul - 02:07:38 10° NNW 02:12:45 24° NNE 02:17:56 10° E visible
05 Jul - 04:00:21 10° WNW 04:06:51 90° WSW 04:13:40 10° ESE visible
05 Jul - 05:55:44 10° W 06:01:10 26° SSW 06:06:51 10° SSE daylight
05 Jul - 13:39:36 10° SSW 13:45:57 26° SSE 13:52:13 10° E daylight
05 Jul - 15:32:45 10° SW 15:40:39 79° SSE 15:48:16 10° ENE daylight
05 Jul - 17:28:21 10° W 17:35:06 33° NNW 17:41:33 10° NNE daylight
